Hourly Data Report for May 08, 2012

All times are specified in Local Standard Time (LST). Add 1 hour to adjust for Daylight Saving Time where and when it is observed.

YARMOUTH A
NOVA SCOTIA

43°49'37.000" N
66°05'17.000" W
42.90 m
8206495
71603
YQI

Download Data

Hourly Data (May 2012)
Hourly Data Report for May 8, 2012
Temp Definition
°C
Dew Point Temp Definition
°C
Rel Hum Definition
%
Wind Dir Definition
10's deg

Wind Spd Definition
km/h
Visibility Definition
km
Stn Press Definition
kPa
Hmdx Definition


Wind Chill Definition


Weather Definition


TIME
00:00 Legend Double Dagger 5.3 4.9 97 10 5 10.0 101.54     LegendNANA
01:00 Legend Double Dagger 4.4 4.3 99   0 10.0 101.55     LegendNANA
02:00 Legend Double Dagger 5.3 5.0 98 10 7 4.8 101.53     Fog
03:00 Legend Double Dagger 4.4 4.1 98   0 10.0 101.55     Fog
04:00 Legend Double Dagger 3.5 3.5 100 8 4 1.6 101.59     Fog
05:00 Legend Double Dagger 2.8 2.8 100 8 4 0.6 101.61     Fog
06:00 Legend Double Dagger 2.7 2.7 100 7 4 0.4 101.61     Fog
07:00 Legend Double Dagger 5.8 5.8 100 10 5 10.0 101.67     LegendNANA
08:00 Legend Double Dagger 10.3 6.5 77 14 10 10.0 101.68     Cloudy
09:00 Legend Double Dagger 13.4 5.9 60 18 14 10.0 101.67     LegendNANA
10:00 Legend Double Dagger 13.9 4.6 53 20 16 10.0 101.66     LegendNANA
11:00 Legend Double Dagger 13.1 5.3 59 19 19 10.0 101.65     Cloudy
12:00 Legend Double Dagger 11.5 5.2 65 18 21 10.0 101.64     LegendNANA
13:00 Legend Double Dagger 10.8 4.3 64 19 21 10.0 101.62     LegendNANA
14:00 Legend Double Dagger 9.4 4.2 70 19 22 10.0 101.63     Cloudy
15:00 Legend Double Dagger 8.9 4.9 76 18 19 10.0 101.59     LegendNANA
16:00 Legend Double Dagger 8.7 5.6 81 18 14 10.0 101.58     LegendNANA
17:00 Legend Double Dagger 8.7 5.5 80 19 14 10.0 101.55     Rain Showers
18:00 Legend Double Dagger 8.1 6.7 91 17 13 10.0 101.51     Rain Showers
19:00 Legend Double Dagger 8.0 7.6 97 19 8 8.1 101.57     Rain Showers,Fog
20:00 Legend Double Dagger 7.9 7.8 99 15 7 8.1 101.54     Rain Showers,Fog
21:00 Legend Double Dagger 8.0 7.9 99 16 13 6.4 101.52     Rain Showers,Fog
22:00 Legend Double Dagger 8.1 7.8 98 15 21 9.7 101.41     Rain Showers,Fog
23:00 Legend Double Dagger 8.0 7.6 97 15 23 10.0 101.32     Cloudy

Notes on Data Quality.

Legend

  • E = Estimated
  • M = Missing
  • NA = Not Available
  • ‡ = Partner data that is not subject to review by the National Climate Archives
Date modified: